• In Latvia
  • List of Countries
  • For 7 days
  • Water Temperature
  • Satellite Maps
  • Weather Map
  • Weather Widgets
  • user-avatar
    Login

    Hourly Weather Ordino

    Today, 22 August, Tuesday

    Time Temperature Precipitation Wind Pressure Humidity
    00:00 +15°C° 0 mm 1 mps 637 mmHg 64%
    01:00 +15°C° 0 mm 1 mps 637 mmHg 64%
    02:00 +14°C° 0 mm 1 mps 637 mmHg 64%
    03:00 +14°C° 0 mm 1 mps 636 mmHg 63%
    04:00 +14°C° 0 mm 1 mps 637 mmHg 63%
    05:00 +15°C° 0 mm 1 mps 637 mmHg 63%
    06:00 +15°C° 0 mm 1 mps 637 mmHg 60%
    07:00 +19°C° 0 mm 1 mps 638 mmHg 51%
    08:00 +22°C° 0 mm 1 mps 639 mmHg 42%
    09:00 +25°C° 0 mm 2 mps 640 mmHg 33%
    10:00 +27°C° 0 mm 2 mps 640 mmHg 30%
    11:00 +28°C° 0 mm 2 mps 641 mmHg 28%
    12:00 +28°C° 0 mm 2 mps 641 mmHg 28%
    13:00 +28°C° 0 mm 2 mps 641 mmHg 29%
    14:00 +29°C° 0 mm 2 mps 640 mmHg 29%
    15:00 +29°C° 0 mm 2 mps 640 mmHg 29%
    16:00 +27°C° 0.1 mm 2 mps 640 mmHg 37%
    17:00 +25°C° 0.1 mm 1 mps 639 mmHg 45%
    18:00 +23°C° 0.1 mm 1 mps 638 mmHg 53%
    19:00 +21°C° 0 mm 1 mps 638 mmHg 58%
    20:00 +19°C° 0 mm 1 mps 637 mmHg 63%
    21:00 +16°C° 0 mm 1 mps 637 mmHg 68%
    22:00 +16°C° 0 mm 1 mps 637 mmHg 68%
    23:00 +16°C° 0 mm 1 mps 637 mmHg 69%

    Tomorrow, 23 August, Wednesday

    Time Temperature Precipitation Wind Pressure Humidity
    00:00 +15°C° 0 mm 1 mps 637 mmHg 69%
    01:00 +15°C° 0 mm 1 mps 637 mmHg 70%
    02:00 +15°C° 0 mm 1 mps 637 mmHg 71%
    03:00 +14°C° 0 mm 1 mps 637 mmHg 72%
    04:00 +15°C° 0.1 mm 1 mps 637 mmHg 72%
    05:00 +15°C° 0.1 mm 1 mps 637 mmHg 73%
    06:00 +15°C° 0.1 mm 1 mps 637 mmHg 73%
    07:00 +18°C° 0 mm 1 mps 638 mmHg 64%
    08:00 +21°C° 0 mm 1 mps 639 mmHg 56%
    09:00 +23°C° 0 mm 2 mps 640 mmHg 48%
    10:00 +24°C° 0.1 mm 2 mps 640 mmHg 45%
    11:00 +25°C° 0.1 mm 2 mps 640 mmHg 42%
    12:00 +26°C° 0.1 mm 2 mps 641 mmHg 39%
    13:00 +26°C° 0.2 mm 2 mps 640 mmHg 41%
    14:00 +26°C° 0.2 mm 2 mps 640 mmHg 42%
    15:00 +26°C° 0.2 mm 2 mps 639 mmHg 43%
    16:00 +24°C° 0.2 mm 2 mps 639 mmHg 50%
    17:00 +23°C° 0.2 mm 1 mps 638 mmHg 57%
    18:00 +21°C° 0.2 mm 1 mps 638 mmHg 64%
    19:00 +20°C° 0.5 mm 1 mps 638 mmHg 69%
    20:00 +18°C° 0.5 mm 1 mps 638 mmHg 74%
    21:00 +16°C° 0.5 mm 1 mps 637 mmHg 79%
    22:00 +16°C° 0.5 mm 1 mps 637 mmHg 78%
    23:00 +16°C° 0.5 mm 1 mps 637 mmHg 78%

    Day after tomorrow, 24 August, Thursday

    Time Temperature Precipitation Wind Pressure Humidity
    00:00 +16°C° 0.5 mm 1 mps 637 mmHg 78%
    01:00 +15°C° 0.2 mm 1 mps 637 mmHg 78%
    02:00 +15°C° 0.2 mm 1 mps 636 mmHg 79%
    03:00 +14°C° 0.2 mm 1 mps 636 mmHg 79%
    04:00 +14°C° 0 mm 1 mps 636 mmHg 78%
    05:00 +14°C° 0 mm 1 mps 636 mmHg 77%
    06:00 +15°C° 0 mm 1 mps 636 mmHg 76%
    07:00 +18°C° 0 mm 1 mps 637 mmHg 66%
    08:00 +20°C° 0 mm 2 mps 638 mmHg 56%
    09:00 +23°C° 0 mm 2 mps 639 mmHg 46%
    10:00 +25°C° 0 mm 2 mps 639 mmHg 42%
    11:00 +26°C° 0 mm 3 mps 640 mmHg 38%
    12:00 +27°C° 0 mm 3 mps 640 mmHg 34%
    13:00 +27°C° 0 mm 3 mps 640 mmHg 34%
    14:00 +27°C° 0 mm 3 mps 639 mmHg 34%
    15:00 +27°C° 0 mm 4 mps 639 mmHg 33%
    16:00 +25°C° 0 mm 3 mps 638 mmHg 38%
    17:00 +24°C° 0 mm 3 mps 638 mmHg 43%
    18:00 +21°C° 0 mm 2 mps 637 mmHg 48%
    19:00 +19°C° 0 mm 2 mps 637 mmHg 50%
    20:00 +18°C° 0 mm 2 mps 637 mmHg 52%
    21:00 +16°C° 0 mm 2 mps 636 mmHg 54%
    22:00 +16°C° 0 mm 2 mps 636 mmHg 54%
    23:00 +15°C° 0 mm 2 mps 636 mmHg 54%

    25 August, Friday

    Time Temperature Precipitation Wind Pressure Humidity
    00:00 +15°C° 0 mm 2 mps 636 mmHg 54%
    01:00 +15°C° 0 mm 2 mps 636 mmHg 54%
    02:00 +14°C° 0 mm 2 mps 635 mmHg 55%
    03:00 +14°C° 0 mm 2 mps 635 mmHg 55%
    04:00 +14°C° 0 mm 2 mps 635 mmHg 55%
    05:00 +14°C° 0 mm 2 mps 635 mmHg 55%
    06:00 +14°C° 0 mm 2 mps 635 mmHg 55%
    07:00 +17°C° 0.1 mm 2 mps 637 mmHg 49%
    08:00 +20°C° 0.1 mm 2 mps 638 mmHg 43%
    09:00 +24°C° 0.1 mm 3 mps 639 mmHg 37%
    10:00 +25°C° 0 mm 3 mps 639 mmHg 34%
    11:00 +26°C° 0 mm 3 mps 639 mmHg 31%
    12:00 +28°C° 0 mm 4 mps 639 mmHg 28%
    13:00 +28°C° 0 mm 4 mps 639 mmHg 28%
    14:00 +27°C° 0 mm 4 mps 639 mmHg 29%
    15:00 +27°C° 0 mm 4 mps 638 mmHg 29%
    16:00 +26°C° 0 mm 3 mps 638 mmHg 36%
    17:00 +24°C° 0 mm 3 mps 637 mmHg 42%
    18:00 +21°C° 0 mm 2 mps 636 mmHg 49%
    19:00 +19°C° 0.2 mm 2 mps 636 mmHg 53%
    20:00 +18°C° 0.2 mm 2 mps 636 mmHg 57%
    21:00 +16°C° 0.2 mm 2 mps 636 mmHg 61%
    22:00 +16°C° 0.2 mm 2 mps 635 mmHg 59%
    23:00 +16°C° 0.2 mm 2 mps 635 mmHg 57%

    26 August, Saturday

    Time Temperature Precipitation Wind Pressure Humidity
    00:00 +15°C° 0.2 mm 2 mps 635 mmHg 55%
    01:00 +15°C° 0 mm 2 mps 635 mmHg 51%
    02:00 +15°C° 0 mm 2 mps 634 mmHg 47%
    03:00 +15°C° 0 mm 2 mps 634 mmHg 44%
    04:00 +15°C° 0 mm 2 mps 634 mmHg 44%
    05:00 +15°C° 0 mm 2 mps 634 mmHg 44%
    06:00 +15°C° 0 mm 2 mps 634 mmHg 44%
    07:00 +17°C° 0 mm 2 mps 635 mmHg 40%
    08:00 +20°C° 0 mm 2 mps 636 mmHg 37%
    09:00 +24°C° 0 mm 3 mps 637 mmHg 33%
    10:00 +24°C° 0 mm 3 mps 638 mmHg 33%
    11:00 +25°C° 0 mm 3 mps 638 mmHg 33%
    12:00 +26°C° 0 mm 3 mps 638 mmHg 32%
    13:00 +25°C° 0 mm 3 mps 637 mmHg 36%
    14:00 +25°C° 0 mm 3 mps 637 mmHg 39%
    15:00 +24°C° 0 mm 3 mps 636 mmHg 42%
    16:00 +23°C° 0 mm 2 mps 636 mmHg 47%
    17:00 +21°C° 0 mm 2 mps 636 mmHg 52%
    18:00 +20°C° 0 mm 2 mps 635 mmHg 57%
    19:00 +19°C° 0 mm 2 mps 635 mmHg 60%
    20:00 +17°C° 0 mm 2 mps 635 mmHg 63%
    21:00 +16°C° 0 mm 2 mps 635 mmHg 66%
    22:00 +16°C° 0.1 mm 2 mps 635 mmHg 64%
    23:00 +16°C° 0.1 mm 2 mps 635 mmHg 62%

    27 August, Sunday

    Time Temperature Precipitation Wind Pressure Humidity
    00:00 +16°C° 0.1 mm 2 mps 635 mmHg 60%
    01:00 +16°C° 0.3 mm 2 mps 635 mmHg 63%
    02:00 +15°C° 0.3 mm 2 mps 634 mmHg 66%
    03:00 +15°C° 0.3 mm 1 mps 634 mmHg 68%
    04:00 +15°C° 0.1 mm 2 mps 634 mmHg 68%
    05:00 +15°C° 0.1 mm 2 mps 635 mmHg 68%
    06:00 +15°C° 0.1 mm 2 mps 635 mmHg 68%
    07:00 +18°C° 0.1 mm 2 mps 636 mmHg 61%
    08:00 +20°C° 0.1 mm 2 mps 637 mmHg 54%
    09:00 +24°C° 0.1 mm 2 mps 638 mmHg 47%
    10:00 +25°C° 0 mm 3 mps 638 mmHg 44%
    11:00 +26°C° 0 mm 3 mps 638 mmHg 41%
    12:00 +27°C° 0 mm 3 mps 638 mmHg 39%
    13:00 +26°C° 0.5 mm 3 mps 638 mmHg 45%
    14:00 +24°C° 0.5 mm 3 mps 638 mmHg 51%
    15:00 +22°C° 0.5 mm 3 mps 637 mmHg 58%
    16:00 +21°C° 0.8 mm 2 mps 637 mmHg 66%
    17:00 +19°C° 0.8 mm 2 mps 636 mmHg 75%
    18:00 +17°C° 0.8 mm 2 mps 635 mmHg 83%
    19:00 +18°C° 0 mm 1 mps 636 mmHg 81%
    20:00 +16°C° 0 mm 1 mps 636 mmHg 80%
    21:00 +16°C° 0 mm 1 mps 636 mmHg 79%
    22:00 +16°C° 0 mm 1 mps 636 mmHg 75%
    23:00 +16°C° 0 mm 1 mps 636 mmHg 72%
    Show more